TimePST,TemperatureF,Dew PointF,Humidity,Sea Level PressureIn,VisibilityMPH,Wind Direction,Wind SpeedMPH,Gust SpeedMPH,PrecipitationIn,Events,Conditions,WindDirDegrees,DateUTC
12:56 AM,12.0,-2.0,53,30.36,10.0,NNW,6.9,-,N/A,,Clear,330,2012-12-20 08:56:00
1:56 AM,9.0,-2.9,59,30.37,10.0,NW,6.9,-,N/A,,Clear,320,2012-12-20 09:56:00
2:56 AM,9.0,-2.9,59,30.36,10.0,NW,6.9,-,N/A,,Clear,320,2012-12-20 10:56:00
3:56 AM,9.0,-2.0,61,30.35,10.0,NNW,6.9,-,N/A,,Clear,340,2012-12-20 11:56:00
4:56 AM,7.0,-2.9,64,30.38,10.0,North,5.8,-,N/A,,Clear,10,2012-12-20 12:56:00
5:56 AM,7.0,-2.9,64,30.40,10.0,North,6.9,-,N/A,,Clear,350,2012-12-20 13:56:00
6:56 AM,6.1,-5.1,60,30.41,10.0,NE,5.8,-,N/A,,Clear,50,2012-12-20 14:56:00
7:56 AM,12.9,1.0,59,30.42,10.0,NW,4.6,-,N/A,,Clear,320,2012-12-20 15:56:00
8:56 AM,21.9,-0.9,37,30.41,10.0,Calm,Calm,-,N/A,,Clear,0,2012-12-20 16:56:00
9:56 AM,28.9,1.0,30,30.40,10.0,Calm,Calm,-,N/A,,Clear,0,2012-12-20 17:56:00
10:56 AM,33.1,-0.9,23,30.35,10.0,Calm,Calm,-,N/A,,Clear,0,2012-12-20 18:56:00
11:56 AM,36.0,-2.0,20,30.29,10.0,SSE,4.6,-,N/A,,Clear,160,2012-12-20 19:56:00
12:56 PM,39.0,-2.0,18,30.24,10.0,Variable,3.5,-,N/A,,Clear,0,2012-12-20 20:56:00
1:56 PM,42.1,-5.1,14,30.22,10.0,South,11.5,-,N/A,,Clear,170,2012-12-20 21:56:00
2:56 PM,42.1,-4.0,14,30.19,10.0,South,11.5,-,N/A,,Clear,180,2012-12-20 22:56:00
3:56 PM,39.9,-2.9,16,30.19,10.0,South,11.5,19.6,N/A,,Clear,180,2012-12-20 23:56:00
4:56 PM,33.1,-2.9,21,30.23,10.0,South,5.8,-,N/A,,Clear,190,2012-12-21 00:56:00
5:56 PM,32.0,-2.9,22,30.24,10.0,SSE,3.5,-,N/A,,Clear,150,2012-12-21 01:56:00
6:56 PM,23.0,-0.9,35,30.29,10.0,North,-9999.0,-,N/A,,Clear,0,2012-12-21 02:56:00
7:56 PM,19.0,-0.9,42,30.29,10.0,NNW,4.6,-,N/A,,Clear,330,2012-12-21 03:56:00
8:56 PM,14.0,-2.0,49,30.28,10.0,NNW,4.6,-,N/A,,Clear,330,2012-12-21 04:56:00
9:56 PM,12.9,-2.0,51,30.26,10.0,NW,4.6,-,N/A,,Clear,320,2012-12-21 05:56:00
10:56 PM,12.9,-0.9,54,30.25,10.0,NNW,4.6,-,N/A,,Clear,330,2012-12-21 06:56:00
11:56 PM,10.0,-2.0,58,30.23,10.0,North,3.5,-,N/A,,Clear,350,2012-12-21 07:56:00